Regional Weather Roundup
Issued by NWS

Home | Current Version | Previous Version | Text Only | Print | Product List | Glossary Off
Versions: 1 2 3 4 5 6 7 8 9 10 11 12 13 14 15 16 17 18 19 20 21 22 23 24 25 26 27 28 29 30 31 32 33 34 35 36 37 38 39 40 41 42 43 44 45 46 47 48 49 50

000
ASUS45 KPSR 031110
RWRAZ

ARIZONA HOURLY REGIONAL WEATHER ROUNDUP
NATIONAL WEATHER SERVICE PHOENIX AZ
400 AM MST MON AUG 03 2015

NOTE: FAIR INDICATES FEW OR NO CLOUDS BELOW 12,000 FEET WITH NO
SIGNIFICANT WEATHER AND/OR OBSTRUCTIONS TO VISIBILITY.

AZZ001>003-036-031200-
NORTHWEST ARIZONA

CITY           SKY/WX    TMP DP  RH WIND       PRES   REMARKS
BULLHEAD CITY  CLEAR     90  45  20 S3        29.73R
KINGMAN        CLEAR     76  42  29 CALM      29.96R
$$

AZZ004>008-015-016-018-031200-
NORTH CENTRAL ARIZONA

CITY           SKY/WX    TMP DP  RH WIND       PRES   REMARKS
GRAND CANYON   CLEAR     46  44  93 CALM      30.22S FOG
WILLIAMS       CLEAR     54  48  82 S10       30.29S
PRESCOTT       PTCLDY    65  49  56 CALM      30.10S
FLAGSTAFF      CLEAR     48  47  96 CALM      30.26S
PAYSON         CLEAR     64  52  63 CALM      30.12S
PAGE           CLEAR     68  60  75 N6        30.05S
$$

AZZ009>014-017-031200-
NORTHEAST ARIZONA

CITY           SKY/WX    TMP DP  RH WIND       PRES   REMARKS
WINSLOW        CLEAR     58  54  86 S3        30.12
SAINT JOHNS    CLEAR     58  53  84 CALM      30.16S
SHOW LOW       MOCLDY    55  50  82 S5        30.22S
$$

AZZ023-031200-
GREATER PHOENIX AREA

CITY           SKY/WX    TMP DP  RH WIND       PRES   REMARKS
PHOENIX        CLEAR     89  58  34 SE3       29.76S
DEER VALLEY    CLEAR     85  52  32 E3        29.79S
SCOTTSDALE     CLEAR     89  52  28 CALM      29.81S
MESA-GATEWAY   CLEAR     82  52  34 E8        29.82S
$$

AZZ027-028-031200-
SOUTHWEST MARICOPA COUNTY AND PINAL COUNTY

CITY           SKY/WX    TMP DP  RH WIND       PRES   REMARKS
CASA GRANDE    CLEAR     82  55  39 CALM      29.80S
GILA BEND      FAIR      87  51  28 S6        29.75S
$$

AZZ503-504-507>509-031200-
SOUTHEAST ARIZONA

CITY           SKY/WX    TMP DP  RH WIND       PRES   REMARKS
TUCSON         CLEAR     82  58  43 S9        29.93S
DAVIS-MONTHAN  PTCLDY    81  58  45 S6        29.92R
NOGALES        CLEAR     68  60  75 S3        30.03S
SIERRA VISTA   CLEAR     70  58  66 N2        30.08S
DOUGLAS          N/A    N/A N/A N/A MISG      30.04S
SAFFORD        CLEAR     71  58  63 CALM      29.94S
$$

AZZ020-021-025-026-031-031200-
SOUTHWEST ARIZONA

CITY           SKY/WX    TMP DP  RH WIND       PRES   REMARKS
YUMA           CLEAR     88  58  36 CALM      29.71S
$$

CAZ031-033-041-043-047-048-061-031200-
SOUTHERN CALIFORNIA

CITY           SKY/WX    TMP DP  RH WIND       PRES   REMARKS
DOWNTOWN L.A.  CLEAR     69  62  78 CALM      29.86S
L.A. AIRPORT   CLEAR     68  62  81 CALM      29.87S
SAN DIEGO      CLOUDY    69  62  78 CALM      29.88F
BURBANK        CLEAR     68  62  81 S3        29.88S
ONTARIO        PTCLDY    68  60  75 CALM      29.88S
RIVERSIDE      CLEAR     68  63  84 CALM      29.89R
PALM SPRINGS   CLEAR     85  59  41 NW6       29.75R
EL CENTRO NAS  CLEAR     86  41  20 CALM      29.70R
IMPERIAL       CLEAR     85  42  22 CALM      29.68S
BLYTHE         CLEAR     91  47  21 S3        29.71S
NEEDLES        CLEAR     88  47  24 W7        29.74S
$$

NVZ020-UTZ003-031200-
SOUTHERN NEVADA-UTAH

CITY           SKY/WX    TMP DP  RH WIND       PRES   REMARKS
LAS VEGAS      CLEAR     86  40  19 S7        29.78S
SALT LAKE CITY LGT RAIN  65  60  84 S6        30.05R
$$

NMZ009-TXZ055-031200-
NEW MEXICO-WEST TEXAS

CITY           SKY/WX    TMP DP  RH WIND       PRES   REMARKS
ALBUQUERQUE    PTCLDY    65  59  81 N5        30.14S
EL PASO        MOCLDY    72  65  78 E9        30.02R
$$


........................KEY........................
SKY/WX - SKY CONDITION/WEATHER
TMP    - TEMPERATURE IN FAHRENHEIT
DP     - DEW POINT IN FAHRENHEIT
RH     - RELATIVE HUMIDITY IN PERCENT
WIND   - DIRECTION AND SPEED IN MILES PER HOUR (MPH)
VRB    - VARIABLE WIND DIRECTION
PRES   - MEAN SEA LEVEL PRESSURE IN INCHES OF MERCURY
         F - FALLING PRESSURE   R - RISING PRESSURE
         S - STEADY PRESSURE
VSB    - VISIBILITY IN MILES
HX     - HEAT INDEX IN FAHRENHEIT
WCI    - WIND CHILL INDEX IN FAHRENHEIT
TC     - TEMPERATURE IN CELSIUS WHICH IS ALSO KNOWN AS
         TEMPERATURE IN CENTIGRADE
AFB    - AIR FORCE BASE
         LUKE AFB IS LUKE AIR FORCE BASE
         DAVIS-MONTHAN IS DAVIS-MONTHAN AIR FORCE BASE
NAS    - NAVAL AIR STATION
         EL CENTRO NAS IS EL CENTRO NAVAL AIR STATION
N/A    - NOT AVAILABLE



USA.gov is the U.S. government's official web portal to all federal, state and local government web resources and services.